Flag for Poland Weather past 2 weeks in Kalisz, Poland

Now
33 °F

Overcast.


Feels Like: 28 °F
Forecast: 31 / 36 °F
Wind: 6 mph from South

Location: Kalisz

Current Time: Jan 28, 2015 at 9:53:11 PM

Latest Report: Jan 28, 2015 at 9:00 PM


Visibility: 6 mi

Pressure: 29.60 "Hg

Humidity: 77%

Dew point: 27 °F

Location of KaliszLocation

Historic Weather in Kalisz — Graph

°F

Kalisz temperature yesterday

Maximum temperature yesterday: 35 °F (at 4:00 PM)
Minimum temperature yesterday: 26 °F (at 1:00 AM)
Average temperature yesterday: 31 °F

Past Weeks' High & Low Weather Summary

 TemperatureHumidityPressure
High50 °F (Jan 14, 1:00 PM)100% (Jan 18, 5:00 AM)30.30 "Hg (Jan 18, 5:00 AM)
Low26 °F (Jan 27, 1:00 AM)49% (Jan 13, 10:00 PM)29.65 "Hg (Jan 28, 8:00 PM)
Average35 °F87%30.01 "Hg
* Reported Jan 13 8:00 PM — Jan 28 8:00 PM, Kalisz, Weather by CustomWeather, © 2014

Note: Actual official high and low records may vary slightly from our data, if they occured in-between our weather recording intervals... More about our weather records

Advertising

Kalisz weather history for previous 24 hours

 ConditionsComfort  
Time TempWeatherWind HumidityBarometerVisibility
8:00 PM
Jan 28
34 °FOvercast.6 mph77%29.65 "Hg6 mi
7:00 PM35 °FOvercast.6 mph76%29.69 "Hg6 mi
6:00 PM36 °FOvercast.6 mph74%29.73 "Hg7 mi
5:00 PM36 °FOvercast.6 mph74%29.78 "Hg7 mi
4:00 PM37 °FOvercast.6 mph70%29.80 "Hg6 mi
3:00 PM36 °FOvercast.5 mph79%29.83 "Hg6 mi
2:00 PM36 °FOvercast.6 mph81%29.86 "Hg9 mi
1:00 PM36 °FOvercast.6 mph79%29.88 "Hg12 mi
12:00 PM34 °FOvercast.6 mph86%29.91 "Hg9 mi
11:00 AM33 °FOvercast.6 mph82%29.95 "Hg16 mi
10:00 AM33 °FOvercast.7 mph83%29.96 "Hg12 mi
9:00 AM33 °FFog.5 mph89%29.96 "Hg5 mi
8:00 AM33 °FLow clouds.5 mph97%29.96 "Hg4 mi
7:00 AM33 °FLight snow. Low clouds.3 mph98%29.96 "Hg2 mi
6:00 AM33 °FFog.3 mph98%29.96 "Hg2 mi
5:00 AM33 °FOvercast.5 mph96%29.96 "Hg5 mi
4:00 AM33 °FLight rain. Low clouds.5 mph97%29.96 "Hg4 mi
3:00 AM34 °FFog.5 mph96%29.96 "Hg4 mi
2:00 AM34 °FOvercast.5 mph98%29.96 "Hg4 mi
1:00 AM34 °FLight rain. Low clouds.6 mph98%29.96 "Hg2 mi
12:00 AM34 °FFog.6 mph98%29.96 "Hg2 mi
11:00 PM
Jan 27
34 °FFog.6 mph98%29.94 "Hg2 mi
10:00 PM34 °FFog.5 mph97%29.95 "Hg3 mi
9:00 PM34 °FLow clouds.5 mph97%29.95 "Hg4 mi
Weather by CustomWeather, © 2014

See weather overviewHow to use our weather pages